RYR397 EIDW-LEBL

Flight info

Callsign RYR397
Flight time N/A
Altitude 37000
Route PESIT4E PESIT DCT BAKUR DCT GUBJE DCT GISOK DCT TACQI DCT MANIG DCT KORER UM616 TUPAR DCT CNA DCT SECHE DCT AGN DCT TOU DCT LOMRA DCT ROCAN DCT PUMAL PUMAL1Y
Aircraft B38M/M-VGDW/C

Departure

Time N/A
Airport Dublin Airport (EIDW)

Arrival

Time 2026-05-07 17:44
Airport Josep Tarradellas Barcelona-El Prat Airport (LEBL)
Time Latitude Longitude Altitude Speed Heading
2026-05-07 17:39 41.22086 1.88459 3010 ft 189 kts 99°
2026-05-07 17:39 41.22235 1.90161 2892 ft 187 kts 67°
2026-05-07 17:40 41.23038 1.91492 2665 ft 185 kts 45°
2026-05-07 17:40 41.23932 1.92663 2453 ft 182 kts 46°
2026-05-07 17:40 41.24671 1.93722 2243 ft 181 kts 54°
2026-05-07 17:40 41.25336 1.95096 2004 ft 173 kts 65°
2026-05-07 17:41 41.25827 1.96502 1788 ft 164 kts 66°
2026-05-07 17:41 41.26276 1.97831 1616 ft 148 kts 67°
2026-05-07 17:41 41.26676 1.99001 1434 ft 133 kts 67°
2026-05-07 17:41 41.27055 2.00108 1234 ft 131 kts 67°
2026-05-07 17:42 41.27433 2.01212 1059 ft 132 kts 67°
2026-05-07 17:42 41.27811 2.02318 813 ft 131 kts 67°
2026-05-07 17:42 41.28188 2.03406 600 ft 130 kts 66°
2026-05-07 17:42 41.28545 2.04495 522 ft 129 kts 68°
2026-05-07 17:43 41.28916 2.05572 295 ft 127 kts 65°
2026-05-07 17:43 41.29292 2.06631 125 ft 129 kts 67°
2026-05-07 17:43 41.29663 2.07706 23 ft 122 kts 65°
2026-05-07 17:43 41.29926 2.08487 27 ft 61 kts 65°
2026-05-07 17:44 41.30066 2.08751 23 ft 27 kts 41°
2026-05-07 17:44 41.30214 2.08870 22 ft 0 kts 26°
2026-05-07 17:44 41.30226 2.08877 21 ft 4 kts 25°
2026-05-07 17:44 41.30259 2.08894 20 ft 7 kts 19°
2026-05-07 17:45 41.30313 2.08917 21 ft 9 kts
2026-05-07 17:45 41.30322 2.08917 21 ft 2 kts 360°
2026-05-07 17:45 41.30361 2.08902 22 ft 11 kts 337°
2026-05-07 17:45 41.30433 2.08850 24 ft 11 kts 315°
2026-05-07 17:46 41.30442 2.08777 25 ft 8 kts 247°
2026-05-07 17:46 41.30415 2.08694 22 ft 11 kts 246°
2026-05-07 17:46 41.30380 2.08593 24 ft 13 kts 243°
2026-05-07 17:46 41.30335 2.08472 23 ft 16 kts 244°
2026-05-07 17:47 41.30353 2.08398 24 ft 7 kts 338°
2026-05-07 17:47 41.30396 2.08361 24 ft 8 kts 303°
2026-05-07 17:47 41.30406 2.08311 24 ft 0 kts 277°
2026-05-07 17:50 41.30406 2.08310 23 ft 0 kts 271°
2026-05-07 17:51 41.30393 2.08306 26 ft 12 kts 168°